Location: Highridge
(54.0333°N, 114.1333°W)
Time: 13:01:59
(UTC+00:00)

Oscar 19 - Pass Details

Date: 30 November 2023
Orbit: 771 x 789 km, 98.9° (Epoch: 01 March)

Event Time Altitude Azimuth Distance (km) Brightness Sun altitude
Rises 00:59:36 0° 222° (SW) 3,239 14.9 -13.7°
Reaches altitude 10° 01:03:22 10° 250° (WSW) 2,319 14.5 -14.3°
Maximum altitude 01:05:33 13° 276° (W) 2,140 14.0 -14.6°
Drops below altitude 10° 01:07:45 10° 302° (WNW) 2,327 13.7 -14.9°
Sets 01:11:34 0° 331° (NNW) 3,262 14.0 -15.4°
